Location: Asheville, NC
(35.6000°N, 82.5500°W)
Time: 16:46:51
(UTC-05:00)

Envisat - Pass Details

Date: 12 February 2018
Orbit: 764 x 766 km, 98.2° (Epoch: 18 February)

Event Time Altitude Azimuth Distance (km) Brightness Sun altitude
Exits shadow 19:27:56 14° 133° (SE) 2,019 4.8 -16.5°
Maximum altitude 19:31:46 37° 71° (ENE) 1,178 3.5 -17.3°
Drops below altitude 10° 19:36:23 10° 5° (N) 2,304 5.4 -18.2°
Sets 19:38:50 0° 358° (N) 3,234 6.2 -18.7°
